TimeCDT,TemperatureF,Dew PointF,Humidity,Sea Level PressureIn,VisibilityMPH,Wind Direction,Wind SpeedMPH,Gust SpeedMPH,PrecipitationIn,Events,Conditions,WindDirDegrees,DateUTC
12:15 AM,37.4,36.7,97,29.99,5.0,North,4.6,-,N/A,Rain,Rain,10,2013-04-23 05:15:00
12:35 AM,36.7,36.1,98,29.98,5.0,East,6.9,-,0.01,Rain,Rain,90,2013-04-23 05:35:00
12:55 AM,37.2,36.7,98,29.97,5.0,East,5.8,-,0.01,Rain,Light Rain,80,2013-04-23 05:55:00
1:15 AM,36.7,36.3,99,29.96,5.0,East,4.6,-,N/A,,Light Drizzle,100,2013-04-23 06:15:00
1:35 AM,36.7,36.1,98,29.94,7.0,ESE,10.4,-,N/A,,Light Drizzle,110,2013-04-23 06:35:00
1:55 AM,36.5,36.0,98,29.92,7.0,ESE,13.8,-,N/A,,Light Drizzle,110,2013-04-23 06:55:00
2:15 AM,36.5,35.8,97,29.91,7.0,ESE,13.8,-,N/A,,Light Drizzle,120,2013-04-23 07:15:00
2:35 AM,36.5,35.6,97,29.90,5.0,ESE,15.0,-,N/A,,Light Drizzle,120,2013-04-23 07:35:00
2:55 AM,36.7,36.1,98,29.89,7.0,SE,12.7,-,N/A,Rain,Light Rain,130,2013-04-23 07:55:00
3:15 AM,36.7,36.0,97,29.88,5.0,SE,11.5,-,N/A,Rain,Light Rain,130,2013-04-23 08:15:00
3:35 AM,36.1,35.6,98,29.88,4.0,ESE,12.7,-,0.01,Rain,Rain,120,2013-04-23 08:35:00
3:55 AM,35.6,35.2,99,29.87,4.0,SE,11.5,-,0.02,Rain,Light Rain,130,2013-04-23 08:55:00
4:15 AM,35.6,35.2,99,29.86,4.0,SE,9.2,-,0.02,Rain,Light Rain,140,2013-04-23 09:15:00
4:35 AM,35.4,35.1,99,29.85,2.5,SE,11.5,-,0.04,Rain,Light Rain,130,2013-04-23 09:35:00
4:55 AM,35.6,35.6,100,29.84,3.0,SE,10.4,-,0.05,Rain,Light Rain,140,2013-04-23 09:55:00
5:15 AM,35.6,35.6,100,29.84,3.0,SSE,5.8,-,N/A,,Light Drizzle,150,2013-04-23 10:15:00
5:35 AM,35.6,35.6,100,29.84,2.5,South,4.6,-,N/A,,Light Drizzle,170,2013-04-23 10:35:00
5:55 AM,35.8,35.8,100,29.83,1.8,South,5.8,-,N/A,,Light Drizzle,170,2013-04-23 10:55:00
6:15 AM,36.0,36.0,100,29.84,1.8,South,5.8,-,N/A,,Overcast,180,2013-04-23 11:15:00
6:35 AM,35.8,35.8,100,29.84,1.0,South,4.6,-,N/A,,Overcast,170,2013-04-23 11:35:00
6:55 AM,36.5,36.5,100,29.85,0.8,SW,4.6,-,N/A,,Overcast,230,2013-04-23 11:55:00
7:15 AM,36.5,36.5,100,29.86,0.2,West,9.2,-,N/A,Fog,Fog,270,2013-04-23 12:15:00
7:35 AM,34.5,34.5,100,29.86,7.0,NW,13.8,-,N/A,,Overcast,320,2013-04-23 12:35:00
7:55 AM,33.1,33.1,100,29.88,3.0,NW,11.5,19.6,N/A,,Overcast,320,2013-04-23 12:55:00
8:15 AM,32.0,32.0,100,29.88,1.8,NNW,15.0,19.6,N/A,,Overcast,330,2013-04-23 13:15:00
8:35 AM,32.0,31.6,99,29.88,5.0,NNW,19.6,23.0,N/A,,Overcast,340,2013-04-23 13:35:00
8:55 AM,32.0,31.1,96,29.88,10.0,NNW,17.3,-,N/A,,Overcast,340,2013-04-23 13:55:00
9:15 AM,32.0,30.9,96,29.90,10.0,North,12.7,21.9,N/A,,Overcast,350,2013-04-23 14:15:00
9:35 AM,32.2,30.4,93,29.90,10.0,North,15.0,23.0,N/A,,Overcast,350,2013-04-23 14:35:00
9:55 AM,33.3,30.7,90,29.91,10.0,North,16.1,20.7,N/A,,Overcast,350,2013-04-23 14:55:00
10:15 AM,33.1,30.0,89,29.91,10.0,NNW,16.1,23.0,N/A,,Overcast,340,2013-04-23 15:15:00
10:35 AM,33.8,30.9,89,29.93,10.0,NNW,16.1,20.7,N/A,,Overcast,340,2013-04-23 15:35:00
10:55 AM,33.6,30.9,90,29.94,4.0,North,15.0,-,N/A,Snow,Light Snow,350,2013-04-23 15:55:00
11:15 AM,34.9,30.7,85,29.94,10.0,North,17.3,-,N/A,,Overcast,350,2013-04-23 16:15:00
11:35 AM,34.5,30.9,87,29.94,10.0,North,13.8,20.7,N/A,,Overcast,350,2013-04-23 16:35:00
11:55 AM,35.8,30.6,81,29.95,10.0,NNW,13.8,-,N/A,,Overcast,330,2013-04-23 16:55:00
12:15 PM,35.6,29.8,80,29.94,10.0,NNW,16.1,21.9,N/A,,Overcast,330,2013-04-23 17:15:00
12:35 PM,36.1,30.0,78,29.95,10.0,NNW,12.7,20.7,N/A,,Overcast,330,2013-04-23 17:35:00
12:55 PM,36.5,29.5,76,29.94,10.0,North,13.8,-,N/A,,Overcast,350,2013-04-23 17:55:00
1:15 PM,36.1,29.8,78,29.95,10.0,NNW,12.7,19.6,N/A,,Overcast,330,2013-04-23 18:15:00
1:35 PM,35.8,29.3,77,29.95,10.0,NW,12.7,-,N/A,,Overcast,320,2013-04-23 18:35:00
1:55 PM,35.8,29.3,77,29.94,10.0,NNW,15.0,-,N/A,,Overcast,330,2013-04-23 18:55:00
2:15 PM,35.8,29.5,78,29.94,10.0,NW,12.7,18.4,N/A,,Overcast,320,2013-04-23 19:15:00
2:35 PM,34.9,28.4,77,29.94,10.0,NW,17.3,23.0,N/A,,Overcast,320,2013-04-23 19:35:00
2:55 PM,35.6,29.5,78,29.94,10.0,NNW,15.0,19.6,N/A,,Overcast,330,2013-04-23 19:55:00
3:15 PM,36.9,29.8,76,29.94,10.0,NNW,12.7,17.3,N/A,,Overcast,340,2013-04-23 20:15:00
3:35 PM,37.9,29.1,71,29.95,10.0,NNW,15.0,19.6,N/A,,Mostly Cloudy,330,2013-04-23 20:35:00
3:55 PM,37.9,29.3,71,29.94,10.0,NW,15.0,-,N/A,,Overcast,320,2013-04-23 20:55:00
4:15 PM,36.7,26.8,67,29.95,10.0,North,12.7,-,N/A,,Overcast,350,2013-04-23 21:15:00
4:35 PM,36.3,27.3,70,29.95,10.0,NNW,15.0,-,N/A,,Overcast,330,2013-04-23 21:35:00
4:55 PM,35.6,26.4,69,29.95,10.0,NNW,13.8,21.9,N/A,,Overcast,340,2013-04-23 21:55:00
5:15 PM,34.7,26.6,72,29.95,10.0,NNW,15.0,20.7,N/A,,Overcast,340,2013-04-23 22:15:00
5:35 PM,34.0,26.1,73,29.96,10.0,NNW,11.5,-,N/A,,Overcast,340,2013-04-23 22:35:00
5:55 PM,33.8,27.0,76,29.96,10.0,North,16.1,-,N/A,,Overcast,350,2013-04-23 22:55:00
6:15 PM,33.8,25.7,72,29.97,10.0,North,12.7,-,N/A,,Overcast,350,2013-04-23 23:15:00
6:35 PM,33.8,25.7,72,29.96,10.0,NNW,11.5,-,N/A,,Overcast,330,2013-04-23 23:35:00
6:55 PM,33.3,25.5,73,29.97,10.0,NNW,11.5,16.1,N/A,,Overcast,340,2013-04-23 23:55:00
7:15 PM,33.1,24.6,71,29.97,10.0,North,8.1,-,N/A,,Overcast,350,2013-04-24 00:15:00
7:35 PM,32.9,24.8,72,29.97,10.0,North,13.8,17.3,N/A,,Overcast,350,2013-04-24 00:35:00
7:55 PM,32.7,24.4,72,29.97,10.0,NNW,9.2,-,N/A,,Overcast,340,2013-04-24 00:55:00
8:15 PM,32.2,24.6,74,29.97,10.0,NNW,10.4,-,N/A,,Mostly Cloudy,340,2013-04-24 01:15:00
8:35 PM,31.8,23.7,72,29.98,10.0,NNW,10.4,-,N/A,,Scattered Clouds,340,2013-04-24 01:35:00
8:55 PM,31.1,23.7,74,29.98,10.0,NNW,5.8,-,N/A,,Clear,330,2013-04-24 01:55:00
9:15 PM,29.7,23.2,77,29.99,10.0,NNW,3.5,-,N/A,,Clear,330,2013-04-24 02:15:00
9:35 PM,29.3,23.4,78,29.98,10.0,Calm,Calm,-,N/A,,Clear,0,2013-04-24 02:35:00
9:55 PM,29.5,24.3,81,29.99,10.0,Calm,Calm,-,N/A,,Clear,0,2013-04-24 02:55:00
10:15 PM,29.3,24.8,83,29.98,10.0,WNW,3.5,-,N/A,,Clear,290,2013-04-24 03:15:00
10:35 PM,28.9,23.5,80,29.98,10.0,WNW,3.5,-,N/A,,Clear,290,2013-04-24 03:35:00
10:55 PM,28.4,24.1,84,29.98,10.0,WNW,4.6,-,N/A,,Clear,300,2013-04-24 03:55:00
11:15 PM,28.2,23.0,81,29.97,10.0,NW,4.6,-,N/A,,Clear,310,2013-04-24 04:15:00
11:35 PM,27.7,22.5,81,29.96,10.0,NW,3.5,-,N/A,,Clear,310,2013-04-24 04:35:00
11:55 PM,27.5,23.4,84,29.97,10.0,West,3.5,-,N/A,,Clear,280,2013-04-24 04:55:00